Flag for Senegal Weather past 2 weeks in Thiès, Senegal

Now
75 °F

Passing clouds.


Feels Like: 77 °F
Forecast: 64 / 90 °F
Wind: 10 mph from Northwest

Location: Dakar / Yoff

Current Time: Apr 26, 2015 at 10:48:27 AM

Latest Report: Apr 26, 2015 at 10:30 AM


Visibility: N/A

Pressure: 29.92 "Hg

Humidity: 65%

Dew point: 63 °F

Location of ThièsLocation

Historic Weather in Thiès — Graph

°F

Thiès temperature yesterday

Maximum temperature yesterday: 79 °F (at 1:00 PM)
Minimum temperature yesterday: 64 °F (at 3:00 AM)
Average temperature yesterday: 71 °F

Past Weeks' High & Low Weather Summary

 TemperatureHumidityPressure
High79 °F (Apr 11, 1:00 PM)100% (Apr 18, 8:30 AM)29.98 "Hg (Apr 18, 8:30 AM)
Low64 °F (Apr 12, 4:00 AM)54% (Apr 11, 1:00 PM)29.77 "Hg (Apr 11, 3:30 PM)
Average70 °F82%29.87 "Hg
* Reported Apr 11 9:00 AM — Apr 26 9:30 AM, Thiès, Weather by CustomWeather, © 2015

Note: Actual official high and low records may vary slightly from our data, if they occured in-between our weather recording intervals... More about our weather records

Advertising

Thiès weather history for previous 24 hours

 ConditionsComfort  
Time TempWeatherWind HumidityBarometerVisibility
9:30 AM
Sun, Apr 26
73 °FPassing clouds.8 mph69%29.92 "HgN/A
9:00 AM72 °FPassing clouds.8 mph78%29.92 "HgN/A
8:30 AM70 °FPassing clouds.6 mph88%29.89 "HgN/A
8:00 AM68 °FPassing clouds.6 mph94%29.89 "HgN/A
7:30 AM68 °FPassing clouds.5 mph94%29.89 "HgN/A
7:00 AM66 °FClear.2 mph94%29.89 "Hg5 mi
6:30 AM68 °FClear.5 mph88%29.86 "Hg5 mi
6:00 AM66 °FClear.2 mph94%29.86 "Hg10 mi
5:30 AM66 °FClear.3 mph94%29.86 "Hg10 mi
5:00 AM66 °FClear.1 mph94%29.86 "Hg10 mi
4:30 AM66 °FClear.2 mph94%29.86 "Hg10 mi
4:00 AM66 °FClear.2 mph94%29.86 "Hg10 mi
3:30 AM66 °FClear.3 mph94%29.86 "Hg10 mi
3:00 AM68 °FClear.1 mph88%29.89 "Hg10 mi
2:30 AM68 °FClear.3 mph88%29.89 "Hg10 mi
2:00 AM68 °FClear.2 mph88%29.89 "Hg10 mi
1:30 AM68 °FClear.3 mph88%29.89 "Hg10 mi
1:00 AM68 °FClear.2 mph88%29.89 "Hg10 mi
12:30 AM68 °FClear.3 mph88%29.92 "Hg10 mi
12:00 AM68 °FClear.3 mph94%29.92 "Hg10 mi
11:30 PM
Sat, Apr 25
68 °FClear.3 mph94%29.92 "Hg10 mi
11:00 PM70 °FPassing clouds.5 mph83%29.92 "HgN/A
10:30 PM70 °FClear.6 mph88%29.92 "Hg10 mi
10:00 PM70 °FClear.5 mph83%29.92 "Hg10 mi
9:00 PM70 °FPassing clouds.7 mph83%29.89 "HgN/A
8:30 PM70 °FClear.7 mph83%29.89 "Hg10 mi
8:00 PM70 °FPassing clouds.7 mph83%29.86 "HgN/A
7:30 PM72 °FPassing clouds.6 mph78%29.86 "HgN/A
7:00 PM73 °FPassing clouds.7 mph74%29.86 "HgN/A
6:30 PM73 °FPassing clouds.8 mph74%29.83 "HgN/A
6:00 PM75 °FPassing clouds.7 mph69%29.83 "HgN/A
5:30 PM77 °FPassing clouds.7 mph65%29.83 "HgN/A
5:00 PM77 °FPassing clouds.6 mph61%29.83 "HgN/A
4:30 PM77 °FSunny.6 mph61%29.83 "Hg10 mi
4:00 PM77 °FPassing clouds.7 mph61%29.86 "HgN/A
3:30 PM77 °FPassing clouds.7 mph61%29.86 "HgN/A
3:00 PM77 °FPassing clouds.9 mph61%29.86 "HgN/A
2:30 PM79 °FPassing clouds.10 mph58%29.86 "HgN/A
2:00 PM77 °FPassing clouds.9 mph61%29.89 "HgN/A
1:30 PM79 °FPassing clouds.8 mph58%29.89 "HgN/A
1:00 PM79 °FPassing clouds.7 mph58%29.92 "HgN/A
12:30 PM77 °FPassing clouds.8 mph61%29.92 "HgN/A
12:00 PM77 °FPassing clouds.7 mph61%29.92 "HgN/A
11:30 AM77 °FPassing clouds.7 mph61%29.92 "HgN/A
11:00 AM77 °FPassing clouds.6 mph61%29.92 "HgN/A
10:30 AM75 °FPassing clouds.5 mph69%29.92 "HgN/A
10:00 AM75 °FPassing clouds.8 mph69%29.92 "HgN/A
Weather by CustomWeather, © 2015

See weather overviewHow to use our weather pages